Stündliche Wetter Holstovo

Heute, 21 Juni, Montag

Zeit Temperatur Niederschläge Wind Luftdruck Luftfeuchtigkeit
00:00 +20°C° 0 mm 2 m/S 752 mmHg 83%
01:00 +20°C° 0 mm 2 m/S 752 mmHg 85%
02:00 +20°C° 0 mm 1 m/S 752 mmHg 88%
03:00 +21°C° 0 mm 1 m/S 752 mmHg 86%
04:00 +22°C° 0 mm 1 m/S 752 mmHg 85%
05:00 +23°C° 0 mm 1 m/S 752 mmHg 83%
06:00 +24°C° 0 mm 1 m/S 752 mmHg 76%
07:00 +26°C° 0 mm 1 m/S 752 mmHg 70%
08:00 +28°C° 0 mm 1 m/S 753 mmHg 63%
09:00 +29°C° 0.2 mm 1 m/S 753 mmHg 59%
10:00 +30°C° 0.2 mm 1 m/S 753 mmHg 55%
11:00 +31°C° 0.2 mm 1 m/S 753 mmHg 51%
12:00 +32°C° 0 mm 1 m/S 752 mmHg 49%
13:00 +32°C° 0 mm 1 m/S 752 mmHg 46%
14:00 +34°C° 0 mm 2 m/S 752 mmHg 43%
15:00 +32°C° 0 mm 2 m/S 752 mmHg 47%
16:00 +32°C° 0 mm 2 m/S 752 mmHg 50%
17:00 +31°C° 0 mm 2 m/S 752 mmHg 54%
18:00 +29°C° 0 mm 2 m/S 752 mmHg 60%
19:00 +27°C° 0 mm 2 m/S 752 mmHg 66%
20:00 +25°C° 0 mm 2 m/S 752 mmHg 72%
21:00 +24°C° 0 mm 2 m/S 752 mmHg 73%
22:00 +23°C° 0 mm 2 m/S 752 mmHg 75%
23:00 +21°C° 0 mm 2 m/S 752 mmHg 76%

Morgen, 22 Juni, Dienstag

Zeit Temperatur Niederschläge Wind Luftdruck Luftfeuchtigkeit
00:00 +20°C° 0 mm 2 m/S 752 mmHg 79%
01:00 +20°C° 0 mm 2 m/S 752 mmHg 82%
02:00 +19°C° 0 mm 2 m/S 752 mmHg 85%
03:00 +21°C° 0 mm 1 m/S 753 mmHg 84%
04:00 +22°C° 0 mm 1 m/S 753 mmHg 83%
05:00 +22°C° 0 mm 1 m/S 753 mmHg 82%
06:00 +24°C° 0 mm 1 m/S 753 mmHg 75%
07:00 +26°C° 0 mm 2 m/S 753 mmHg 68%
08:00 +28°C° 0 mm 2 m/S 753 mmHg 61%
09:00 +29°C° 0 mm 2 m/S 753 mmHg 56%
10:00 +30°C° 0 mm 2 m/S 753 mmHg 50%
11:00 +31°C° 0 mm 2 m/S 753 mmHg 44%
12:00 +32°C° 0 mm 2 m/S 753 mmHg 42%
13:00 +34°C° 0 mm 2 m/S 752 mmHg 41%
14:00 +34°C° 0 mm 2 m/S 752 mmHg 39%
15:00 +34°C° 0 mm 2 m/S 752 mmHg 42%
16:00 +34°C° 0 mm 2 m/S 752 mmHg 46%
17:00 +32°C° 0 mm 2 m/S 752 mmHg 50%
18:00 +30°C° 0 mm 2 m/S 752 mmHg 57%
19:00 +28°C° 0 mm 2 m/S 752 mmHg 64%
20:00 +26°C° 0 mm 1 m/S 752 mmHg 72%
21:00 +25°C° 0 mm 2 m/S 752 mmHg 73%
22:00 +24°C° 0 mm 2 m/S 752 mmHg 74%
23:00 +23°C° 0 mm 2 m/S 752 mmHg 75%

übermorgen, 23 Juni, Mittwoch

Zeit Temperatur Niederschläge Wind Luftdruck Luftfeuchtigkeit
00:00 +23°C° 0 mm 2 m/S 752 mmHg 77%
01:00 +21°C° 0 mm 2 m/S 752 mmHg 79%
02:00 +21°C° 0 mm 2 m/S 753 mmHg 81%
03:00 +21°C° 0 mm 2 m/S 753 mmHg 81%
04:00 +23°C° 0 mm 2 m/S 753 mmHg 82%
05:00 +23°C° 0 mm 1 m/S 753 mmHg 82%
06:00 +25°C° 0 mm 2 m/S 753 mmHg 75%
07:00 +27°C° 0 mm 2 m/S 753 mmHg 69%
08:00 +28°C° 0 mm 2 m/S 753 mmHg 63%
09:00 +30°C° 0 mm 2 m/S 753 mmHg 57%
10:00 +31°C° 0 mm 2 m/S 753 mmHg 51%
11:00 +34°C° 0 mm 2 m/S 753 mmHg 44%
12:00 +34°C° 0 mm 2 m/S 753 mmHg 41%
13:00 +35°C° 0 mm 2 m/S 753 mmHg 38%
14:00 +36°C° 0 mm 2 m/S 753 mmHg 35%
15:00 +35°C° 0 mm 2 m/S 753 mmHg 39%
16:00 +35°C° 0 mm 2 m/S 752 mmHg 42%
17:00 +34°C° 0 mm 2 m/S 752 mmHg 46%
18:00 +31°C° 0 mm 2 m/S 752 mmHg 53%
19:00 +29°C° 0 mm 2 m/S 752 mmHg 60%
20:00 +26°C° 0 mm 2 m/S 752 mmHg 67%
21:00 +25°C° 0 mm 2 m/S 752 mmHg 69%
22:00 +25°C° 0 mm 2 m/S 752 mmHg 71%
23:00 +24°C° 0 mm 2 m/S 752 mmHg 73%

24 Juni, Donnerstag

Zeit Temperatur Niederschläge Wind Luftdruck Luftfeuchtigkeit
00:00 +23°C° 0 mm 2 m/S 752 mmHg 75%
01:00 +23°C° 0 mm 2 m/S 752 mmHg 77%
02:00 +21°C° 0 mm 2 m/S 752 mmHg 79%
03:00 +23°C° 0 mm 2 m/S 752 mmHg 78%
04:00 +23°C° 0 mm 2 m/S 752 mmHg 78%
05:00 +24°C° 0 mm 1 m/S 752 mmHg 77%
06:00 +26°C° 0 mm 2 m/S 752 mmHg 71%
07:00 +28°C° 0 mm 2 m/S 752 mmHg 64%
08:00 +30°C° 0 mm 2 m/S 752 mmHg 58%
09:00 +31°C° 0 mm 2 m/S 752 mmHg 53%
10:00 +32°C° 0 mm 2 m/S 752 mmHg 48%
11:00 +35°C° 0 mm 2 m/S 752 mmHg 43%
12:00 +35°C° 0 mm 2 m/S 752 mmHg 41%
13:00 +36°C° 0 mm 2 m/S 751 mmHg 38%
14:00 +36°C° 0 mm 2 m/S 751 mmHg 36%
15:00 +35°C° 0 mm 2 m/S 751 mmHg 39%
16:00 +35°C° 0 mm 3 m/S 750 mmHg 43%
17:00 +34°C° 0 mm 3 m/S 750 mmHg 46%
18:00 +31°C° 0 mm 3 m/S 750 mmHg 54%
19:00 +29°C° 0 mm 3 m/S 750 mmHg 62%
20:00 +26°C° 0 mm 2 m/S 749 mmHg 70%
21:00 +26°C° 0 mm 3 m/S 750 mmHg 71%
22:00 +25°C° 0 mm 3 m/S 750 mmHg 73%
23:00 +24°C° 0 mm 3 m/S 750 mmHg 74%

25 Juni, Freitag

Zeit Temperatur Niederschläge Wind Luftdruck Luftfeuchtigkeit
00:00 +23°C° 0 mm 2 m/S 750 mmHg 78%
01:00 +22°C° 0 mm 1 m/S 750 mmHg 83%
02:00 +19°C° 0 mm 0 m/S 749 mmHg 88%
03:00 +22°C° 0 mm 1 m/S 750 mmHg 86%
04:00 +22°C° 0 mm 1 m/S 750 mmHg 84%
05:00 +21°C° 0 mm 2 m/S 750 mmHg 83%
06:00 +24°C° 0 mm 2 m/S 750 mmHg 75%
07:00 +25°C° 0 mm 2 m/S 750 mmHg 67%
08:00 +27°C° 0 mm 2 m/S 750 mmHg 60%
09:00 +28°C° 0 mm 2 m/S 750 mmHg 56%
10:00 +30°C° 0 mm 2 m/S 750 mmHg 52%
11:00 +31°C° 0 mm 2 m/S 750 mmHg 48%
12:00 +32°C° 0 mm 2 m/S 749 mmHg 45%
13:00 +34°C° 0 mm 2 m/S 749 mmHg 43%
14:00 +34°C° 0 mm 2 m/S 749 mmHg 41%
15:00 +34°C° 0 mm 2 m/S 748 mmHg 45%
16:00 +32°C° 0 mm 2 m/S 748 mmHg 49%
17:00 +31°C° 0 mm 2 m/S 747 mmHg 53%
18:00 +28°C° 1.8 mm 2 m/S 747 mmHg 65%
19:00 +25°C° 1.8 mm 2 m/S 747 mmHg 78%
20:00 +21°C° 1.8 mm 2 m/S 748 mmHg 91%
21:00 +20°C° 0.6 mm 2 m/S 748 mmHg 92%
22:00 +20°C° 0.6 mm 2 m/S 748 mmHg 93%
23:00 +20°C° 0.6 mm 2 m/S 748 mmHg 94%

26 Juni, Samstag

Zeit Temperatur Niederschläge Wind Luftdruck Luftfeuchtigkeit
00:00 +20°C° 0.2 mm 1 m/S 748 mmHg 94%
01:00 +20°C° 0.2 mm 1 m/S 748 mmHg 94%
02:00 +20°C° 0.2 mm 1 m/S 747 mmHg 94%
03:00 +20°C° 0 mm 1 m/S 747 mmHg 93%
04:00 +21°C° 0 mm 1 m/S 747 mmHg 92%
05:00 +21°C° 0 mm 1 m/S 747 mmHg 91%
06:00 +23°C° 0 mm 1 m/S 747 mmHg 84%
07:00 +24°C° 0 mm 1 m/S 747 mmHg 77%
08:00 +26°C° 0 mm 1 m/S 747 mmHg 70%
09:00 +27°C° 0 mm 1 m/S 747 mmHg 65%
10:00 +29°C° 0 mm 1 m/S 747 mmHg 60%
11:00 +30°C° 0 mm 1 m/S 747 mmHg 55%
12:00 +31°C° 0 mm 1 m/S 746 mmHg 52%
13:00 +32°C° 0 mm 1 m/S 746 mmHg 49%
14:00 +32°C° 0 mm 1 m/S 746 mmHg 46%
15:00 +32°C° 0 mm 1 m/S 745 mmHg 48%
16:00 +32°C° 0 mm 1 m/S 745 mmHg 50%
17:00 +32°C° 0 mm 1 m/S 744 mmHg 52%
18:00 +29°C° 1 mm 1 m/S 744 mmHg 65%
19:00 +26°C° 1 mm 2 m/S 744 mmHg 78%
20:00 +21°C° 1 mm 2 m/S 744 mmHg 91%
21:00 +21°C° 0.3 mm 2 m/S 744 mmHg 91%
22:00 +21°C° 0.3 mm 2 m/S 744 mmHg 92%
23:00 +20°C° 0.3 mm 2 m/S 744 mmHg 92%
Mehr zeigen

Wir brauchen deine Erlaubnis

Meteoprog und unser Service Anbieter werden persönliche Daten aufbewahren, so wie Cookies, Geräte Bezeichnung oder ähnliche Technologien von deinem Gerät und Prozess, so wie Persönliche Daten Inhalte und Werbungen, genauso wie social Media und den Verkehr zu analysieren.

  • Aufbewahrung und/oder Zugang zu deiner Geräte Informationen.

    Cookies, Geräte Bezeichnung oder andere Informationen, können aufbewahrt oder Zugang zu deinem Gerät erhalten, für den Grund, der oben angegeben wird.

  • Personalisierte Werbung und Inhalte, Messungen, Einblick in das Publikum und Produkt Entwicklung.

    Werbungen und Inhalte können personalisiert werden, basierend auf ein Profil. Mehr Daten können besser personalisierte Werbungen und Inhalte hinzufügen. Werbung und Inhalte können gezeigt und gemessen werden. Einblicke über das Publikum, welche die Werbung gesehen haben und den Inhalt, können abgeleitet werden. So wie Daten können genutzt werden, um es zu verbessern oder die Benutzer Erfahrung zu verbessern das System und die Software.

Wenn du “Ich stimme zu” klickst, erlaubst du uns, die Cookies zu benutzen die Geräte Bezeichnung, den Web oder ähnliche Technologien zu benutzen. Deine Settings, können in deinem Gerät bei deinem Browser geändert werden.

Für den bestimmten Zweck, berechtigten Interessen beruhen darauf, mehr als auf den Inhalt. Du kannst mehr darüber in unseren Privaten und Cookie Politik lesen.